COSMOS 2066

Satellite information

Favourite Embed

Satellite Type and Status

PAYLOADIN ORBIT

Key statistics

Satellite COSMOS 2066 at a glance.

Uptime

13035

Days in orbit

Revolutions

≈ 12.6

Per day

Orbit

LEO

Low Earth Orbit

Inclination

74.0

Latest

Satellite identification and parameters

Extended collection of information and parameters for COSMOS 2066.

Object identification

Identified? True

Debris? False

Object name: COSMOS 2066

International designator: 1990-029C

Object number (NORAD): 20551

Object ID (CCSDS): 20551

Country: COMMONWEALTH OF INDEPENDENT STATES (CIS)

Current information (Y/N): Y

RCS size: MEDIUM

Orbital parameters

Period: 114.312 minutes

Inclination: 73.9798 deg

SMA: 7802.28 km

Apoapsis: 1462.605 km

Periapsis: 1385.685 km

RAAN: 205.5122 deg

Eccentricy: 0.0049293

Argument of periapsis: 9.7634 deg

Mean anomaly: 103.0469 deg

Mean motion: 12.59709637 rev/day

Mean motion (dot): -0.0000002 rev/day2

B* drag term: -0.000021077 1/REarth

Two-line elements (TLE)

Creation date: Dec. 12, 2025, 7:16 a.m.

Reference frame: TEME

Reference center: EARTH

Epoch: Dec. 12, 2025, 12:38 a.m. UTC

TLE line 0: 0 COSMOS 2066

TLE line 1: 1 20551U 90029C 25346.02670910 -.00000020 00000-0 -21077-4 0 9993

TLE line 2: 2 20551 73.9798 205.5122 0049293 9.7634 103.0469 12.59709637640980

Live tracking on map

Real-time ground track for satellite COSMOS 2066.

In-orbit conjunctions

A list of the most updated potential collisions computed for object COSMOS 2066.

Target Orbit TCA Probability of collision Miss distance Type
COSMOS 2143 DEB LEO 2025-02-11 22:45:24 0.0002756632 658.0 (m) DEBRIS
DELTA 1 DEB SSO 2025-01-03 17:18:54 0.0002574548 434.0 (m) DEBRIS
THORAD DELTA 1 DEB SSO 2024-10-11 20:25:48 0.002032234 51.0 (m) DEBRIS
DELTA 1 DEB SSO 2024-06-10 21:19:30 0.0005339126 121.0 (m) DEBRIS

Associated space launch

Military communications satellites

COSMOS 2066 was lifted into orbit during the mission ‘Kosmos-3M | Strela-1M 345-352’, on board a Kosmos-3M space rocket.

The launch took place on April 6, 1990, 3:13 a.m. from 133/3 (133L).

For more information about the launch, click the button.

Launch to space Kosmos-3M | Strela-1M 345-352
Kosmos-3M | Strela-1M 345-352

Agency: N/A

Status: Launch Successful

Launch date: April 6, 1990, 3:13 a.m. UTC

Rocket: Kosmos-3M

Launch pad: 133/3 (133L)

Location: Plesetsk Cosmodrome, Russian Federation

...

Latest news about this satellite

There are no fresh news available about this satellite. Check back as we update our databases every day.


Newsletter sign-up

Weekly statistics, charts and insights to help you stay on top of the space industry.